Date String (YYYY-MM-DD hh:mm:ss) UTC,Instrument flags,Ambient pressure (hPa),Sample flow (lpm),Bypass flow (lpm),Sample temperature (°C),Ambient temperature (°C),ASC tube jacket temperature (°C),LED temperature (°C),Box temperature (°C),Sample RH (%),Span deviation,Mass concentration (μg/m³),Mass concentration (μg/m³),Mass concentration (μg/m³)
DateTimeUTC,F1_M11,P_M11,Q1_M11,Q2_M11,T1_M11,T2_M11,T3_M11,T4_M11,T5_M11,U1_M11,ZSPAN_M11,X2_M11,X0_M11,X1_M11
2023-05-01 12:00:00,,0828.1,4.98,0.00,26.2,24.6,00.0,34.6,27.7,12.3,0000.0,0004.41,0014.12,0002.65
2023-05-01 12:01:00,,0828.0,5.00,0.00,26.2,24.6,00.0,34.6,27.7,12.2,0000.0,0004.38,0014.35,0002.66
2023-05-01 12:02:00,,0828.1,5.01,0.00,26.2,24.6,00.0,34.6,27.7,12.2,0000.0,0004.37,0014.06,0002.66
2023-05-01 12:03:00,,0828.1,5.00,0.00,26.1,24.5,00.0,34.6,27.7,12.2,0000.0,0004.37,0014.16,0002.68
2023-05-01 12:04:00,,0828.1,5.00,0.00,26.1,24.5,00.0,34.6,27.6,12.2,0000.0,0004.34,0014.12,0002.67
2023-05-01 12:05:00,,0828.1,4.99,0.00,26.1,24.5,00.0,34.5,27.6,12.2,0000.0,0004.22,0013.27,0002.65
2023-05-01 12:06:00,,0828.1,5.01,0.00,26.1,24.5,00.0,34.5,27.6,12.1,0000.0,0004.16,0012.36,0002.63
2023-05-01 12:07:00,,0828.1,5.01,0.00,26.1,24.5,00.0,34.5,27.6,12.1,0000.0,0004.16,0011.81,0002.59
2023-05-01 12:08:00,,0828.1,4.99,0.00,26.1,24.5,00.0,34.5,27.6,12.0,0000.0,0004.11,0010.52,0002.57
2023-05-01 12:09:00,,0828.1,4.99,0.00,26.1,24.5,00.0,34.5,27.6,11.9,0000.0,0004.04,0010.56,0002.56
2023-05-01 12:10:00,,0828.1,5.00,0.00,26.1,24.5,00.0,34.5,27.6,11.8,0000.0,0003.97,0011.27,0002.52
2023-05-01 12:11:00,,0828.1,5.00,0.00,26.1,24.5,00.0,34.5,27.6,11.7,0000.0,0003.97,0012.35,0002.47
2023-05-01 12:12:00,,0828.1,5.00,0.00,26.1,24.5,00.0,34.5,27.6,11.8,0000.0,0003.90,0012.98,0002.43
2023-05-01 12:13:00,,0828.0,5.00,0.00,26.1,24.5,00.0,34.5,27.6,11.7,0000.0,0003.83,0013.19,0002.40
2023-05-01 12:14:00,,0828.1,5.00,0.00,26.1,24.5,00.0,34.5,27.6,11.6,0000.0,0003.81,0012.62,0002.35
2023-05-01 12:15:00,,0828.1,5.01,0.00,26.1,24.5,00.0,34.5,27.6,11.6,0000.0,0003.77,0013.09,0002.32
2023-05-01 12:16:00,,0828.1,4.99,0.00,26.0,24.5,00.0,34.5,27.6,11.6,0000.0,0003.78,0013.86,0002.29
2023-05-01 12:17:00,,0828.1,5.01,0.00,26.0,24.5,00.0,34.5,27.6,11.6,0000.0,0003.83,0014.13,0002.26
2023-05-01 12:18:00,,0828.2,5.00,0.00,26.0,24.5,00.0,34.5,27.5,11.6,0000.0,0003.82,0014.12,0002.27
2023-05-01 12:19:00,,0828.2,5.00,0.00,26.0,24.5,00.0,34.5,27.5,11.6,0000.0,0003.81,0013.81,0002.26
2023-05-01 12:20:00,,0828.2,5.00,0.00,26.0,24.5,00.0,34.5,27.6,11.5,0000.0,0003.79,0014.39,0002.23
2023-05-01 12:21:00,,0828.2,5.00,0.00,26.0,24.5,00.0,34.5,27.5,11.5,0000.0,0003.77,0014.17,0002.20
2023-05-01 12:22:00,,0828.2,5.00,0.00,26.0,24.5,00.0,34.4,27.6,11.5,0000.0,0003.76,0013.22,0002.19
2023-05-01 12:23:00,,0828.2,5.01,0.00,26.1,24.5,00.0,34.4,27.6,11.5,0000.0,0003.75,0012.45,0002.17
2023-05-01 12:24:00,,0828.3,5.01,0.00,26.1,24.5,00.0,34.4,27.6,11.5,0000.0,0003.80,0012.78,0002.16
2023-05-01 12:25:00,,0828.3,5.00,0.00,26.0,24.5,00.0,34.4,27.6,11.6,0000.0,0003.78,0013.23,0002.15
2023-05-01 12:26:00,,0828.4,4.99,0.00,26.0,24.5,00.0,34.4,27.6,11.7,0000.0,0003.78,0012.94,0002.13
2023-05-01 12:27:00,,0828.3,5.00,0.00,26.0,24.5,00.0,34.4,27.6,11.8,0000.0,0003.77,0012.31,0002.12
2023-05-01 12:28:00,,0828.3,5.00,0.00,26.1,24.5,00.0,34.4,27.6,11.8,0000.0,0003.70,0012.56,0002.11
2023-05-01 12:29:00,,0828.4,5.00,0.00,26.1,24.5,00.0,34.4,27.6,11.7,0000.0,0003.66,0012.84,0002.08
2023-05-01 12:30:00,,0828.3,5.00,0.00,26.1,24.5,00.0,34.4,27.6,11.6,0000.0,0003.63,0013.67,0002.07
2023-05-01 12:31:00,,0828.3,5.00,0.00,26.1,24.5,00.0,34.4,27.6,11.7,0000.0,0003.58,0013.46,0002.06
2023-05-01 12:32:00,,0828.3,5.00,0.00,26.1,24.5,00.0,34.4,27.7,11.9,0000.0,0003.55,0013.02,0002.05
2023-05-01 12:33:00,,0828.4,5.00,0.00,26.1,24.5,00.0,34.4,27.6,12.4,0000.0,0003.51,0013.23,0002.04
2023-05-01 12:34:00,,0828.4,5.01,0.00,26.1,24.5,00.0,34.4,27.6,12.7,0000.0,0003.50,0012.90,0002.03
2023-05-01 12:35:00,,0828.4,5.00,0.00,26.1,24.5,00.0,34.4,27.6,12.8,0000.0,0003.46,0012.19,0002.04
2023-05-01 12:36:00,,0828.4,4.98,0.00,26.1,24.6,00.0,34.4,27.6,12.9,0000.0,0003.47,0012.11,0002.05
2023-05-01 12:37:00,,0828.4,5.01,0.00,26.1,24.6,00.0,34.4,27.6,12.8,0000.0,0003.51,0012.12,0002.07
2023-05-01 12:38:00,,0828.4,5.01,0.00,26.1,24.6,00.0,34.4,27.6,12.8,0000.0,0003.55,0012.01,0002.09
2023-05-01 12:39:00,,0828.4,5.00,0.00,26.1,24.6,00.0,34.4,27.6,12.8,0000.0,0003.53,0011.60,0002.09
2023-05-01 12:40:00,,0828.4,5.00,0.00,26.1,24.6,00.0,34.4,27.6,12.6,0000.0,0003.54,0011.83,0002.10
2023-05-01 12:41:00,,0828.4,4.99,0.00,26.1,24.6,00.0,34.4,27.6,12.5,0000.0,0003.54,0011.18,0002.11
2023-05-01 12:42:00,,0828.4,5.01,0.00,26.1,24.6,00.0,34.4,27.6,12.5,0000.0,0003.59,0011.56,0002.11
2023-05-01 12:43:00,,0828.4,5.00,0.00,26.1,24.6,00.0,34.4,27.6,12.2,0000.0,0003.64,0011.88,0002.12
2023-05-01 12:44:00,,0828.4,5.00,0.00,26.1,24.6,00.0,34.4,27.6,12.1,0000.0,0003.67,0011.57,0002.14
2023-05-01 12:45:00,,0828.4,5.01,0.00,26.1,24.6,00.0,34.5,27.6,12.1,0000.0,0003.74,0011.61,0002.16
2023-05-01 12:46:00,,0828.4,5.00,0.00,26.1,24.6,00.0,34.5,27.6,12.0,0000.0,0003.78,0011.51,0002.16
2023-05-01 12:47:00,,0828.4,4.99,0.00,26.1,24.6,00.0,34.5,27.6,12.2,0000.0,0003.77,0011.61,0002.14
2023-05-01 12:48:00,,0828.5,5.00,0.00,26.2,24.6,00.0,34.5,27.6,12.4,0000.0,0003.77,0011.75,0002.13
2023-05-01 12:49:00,,0828.4,5.00,0.00,26.2,24.6,00.0,34.5,27.6,12.5,0000.0,0003.75,0012.00,0002.12
2023-05-01 12:50:00,,0828.5,5.00,0.00,26.2,24.6,00.0,34.5,27.6,12.4,0000.0,0003.76,0012.11,0002.11
2023-05-01 12:51:00,,0828.5,5.00,0.00,26.2,24.6,00.0,34.5,27.6,12.2,0000.0,0003.76,0011.41,0002.11
2023-05-01 12:52:00,,0828.5,4.99,0.00,26.2,24.6,00.0,34.5,27.6,12.2,0000.0,0003.77,0011.06,0002.11
2023-05-01 12:53:00,,0828.6,4.99,0.00,26.2,24.6,00.0,34.5,27.7,12.3,0000.0,0003.72,0010.21,0002.13
2023-05-01 12:54:00,,0828.6,5.01,0.00,26.2,24.6,00.0,34.5,27.7,12.1,0000.0,0003.70,0009.44,0002.14
2023-05-01 12:55:00,,0828.5,5.00,0.00,26.2,24.6,00.0,34.5,27.7,12.1,0000.0,0003.75,0009.74,0002.13
2023-05-01 12:56:00,,0828.6,5.01,0.00,26.2,24.6,00.0,34.5,27.7,12.2,0000.0,0003.75,0010.22,0002.15
2023-05-01 12:57:00,,0828.5,5.00,0.00,26.2,24.6,00.0,34.5,27.7,12.1,0000.0,0003.79,0010.43,0002.18
2023-05-01 12:58:00,,0828.6,5.00,0.00,26.2,24.6,00.0,34.5,27.7,12.3,0000.0,0003.84,0010.44,0002.22
2023-05-01 12:59:00,,0828.6,4.99,0.00,26.1,24.6,00.0,34.5,27.7,12.4,0000.0,0003.84,0010.34,0002.26
